Hourly Weather Roundup
Issued by NWS Central Illinois

Home | Current Version | Previous Version | Text Only | Print | Product List | Glossary On
Versions: 1 2 3 4 5 6 7 8 9 10 11 12 13 14 15 16 17 18 19 20 21 22 23 24 25 26 27 28 29 30 31 32 33 34 35 36 37 38 39 40 41 42 43 44 45 46 47 48 49 50
000
NZUS43 KILX 201310
HWRILX

AREA WEATHER ROUNDUP
NATIONAL WEATHER SERVICE, LINCOLN IL
700 AM CST SAT DEC 20 2014


CITY           SKY/WX    TMP DP  RH WIND       PRES   REMARKS
BLOOMINGTON    MOCLDY    23  23 100 CALM      30.27S FOG
CHAMPAIGN      MOCLDY    25  23  92 E5        30.28R FOG     WCI  19
DECATUR        CLOUDY    30  27  88 SE3       30.28R
FLORA          CLEAR     31  28  89 E3        30.29S
GALESBURG      CLOUDY    29  26  87 E3        30.24S
JACKSONVILLE   CLOUDY    33  29  85 SE5       30.25S WCI  29
LACON          CLOUDY    27  24  87 CALM      30.27S
LAWRENCEVILLE  CLOUDY    30  28  92 E5        30.31R FOG     WCI  25
LITCHFIELD     CLOUDY    31  26  80 SE5       30.26R WCI  27
$$


CITY           SKY/WX    TMP DP  RH WIND       PRES   REMARKS
LINCOLN        CLOUDY    32  29  90 CALM      30.28S
MACOMB         CLOUDY    30  28  92 SE3       30.27R FOG
MATTOON        CLOUDY    29  25  85 SE6       30.27S WCI  23
MT CARMEL AP   CLOUDY    32  30  93 CALM      30.30R
OLNEY-NOBLE AP CLOUDY    32  28  86 CALM      30.30S
PARIS          CLOUDY    30  29  94 CALM      30.30S
PEORIA         CLOUDY    30  24  78 E6        30.27S WCI  24
PONTIAC        CLOUDY    28  26  96 CALM      30.29S FOG
RANTOUL        PTCLDY    26  25  96 CALM      30.28S FOG
ROBINSON       CLOUDY    31  29  93 CALM      30.32R
SPRINGFIELD    CLOUDY    32  27  81 SE5       30.27R WCI  27
TAYLORVILLE    CLOUDY    30  28  93 CALM      30.27R
$$

...REGIONAL REPORTS...


CITY           SKY/WX    TMP DP  RH WIND       PRES   REMARKS
CHICAGO O`HARE CLOUDY    29  23  78 CALM      30.27S
KANKAKEE       CLOUDY    29  27  92 CALM      30.29S
MOLINE         CLOUDY    29  24  82 E5        30.25S WCI  24
MOUNT VERNON   CLOUDY    32  27  80 CALM      30.29R
PITTSFIELD     CLOUDY    32  29  89 SE5       30.25S WCI  28
QUINCY         CLOUDY    32  28  85 SE6       30.23S WCI  26
ROCKFORD       FLURRIES  27  22  81 CALM      30.29R
$$


CITY           SKY/WX    TMP DP  RH WIND       PRES   REMARKS
BURLINGTON     CLOUDY    31  26  82 SE5       30.23S WCI  26
CEDAR RAPIDS   CLOUDY    29  26  89 SE6       30.21R WCI  23
DES MOINES     CLOUDY    32  28  85 S3        30.17S
KIRKSVILLE     SNOW      33  33 100 SE6       30.20S VSB 1/4 WCI  28
OTTUMWA        CLOUDY    31  29  92 S7        30.19S FOG     WCI  24
ST LOUIS       CLOUDY    36  27  69 SE6       30.26R WCI  31
$$


CITY           SKY/WX    TMP DP  RH WIND       PRES   REMARKS
TERRE HAUTE    CLOUDY    29  26  89 CALM      30.30R
EVANSVILLE     CLOUDY    32  25  75 NE3       30.30F
INDIANAPOLIS   CLOUDY    27  24  89 W5        30.29R WCI  22
LAFAYETTE      CLOUDY    28  27  96 CALM      30.29S FOG
MADISON        FLURRIES  27  23  85 E5        30.24F WCI  22
MILWAUKEE      CLOUDY    27  18  69 W5        30.27S WCI  22
$$




USA.gov is the U.S. government's official web portal to all federal, state and local government web resources and services.